Weather History for Clintonville, WI

Change the Weather History Date:

Wednesday, November 28, 2012

  Actual Average Record
Temperature  
Mean Temperature 27 °F -  
Max Temperature 33 °F 35 °F 60 °F (1960)
Min Temperature 21 °F 17 °F -8 °F (1976)
Degree Days  
Heating Degree Days 38    
Moisture  
Dew Point 19 °F    
Average Humidity 70    
Maximum Humidity 93    
Minimum Humidity 52    
Precipitation  
Precipitation 0.00 in - - ()
Sea Level Pressure  
Sea Level Pressure 30.22 in    
Wind  
Wind Speed 6 mph (WSW)    
Max Wind Speed 13 mph    
Max Gust Speed 18 mph    
Visibility 10 miles    
Events      
Averages and records for this station are not official NWS values.
T = Trace of Precipitation, MM = Missing Value Source: NWS Daily Summary

Daily Weather History Graph

Daily Weather History Graph

Search for Another Location

Airport:

Trip Planner

Search our weather history database for the weather conditions in past years. The results will help you decide how hot, cold, wet, or windy it might be!

Date:

Astronomy

Nov. 28, 2012 Rise Set
Actual Time 7:08 AM CST 4:17 PM CST
Civil Twilight 6:36 AM CST 4:49 PM CST
Nautical Twilight 5:59 AM CST 5:26 PM CST
Astronomical Twilight 5:24 AM CST 6:01 PM CST
Moon 4:31 PM CST 7:06 AM CST
Length of Visible Light 10h 13m
Length of Day
9h 08m
Full, 100% of the Moon is Illuminated
Nov 28
Full
Dec 6
Last Quarter
Dec 13
New
Dec 19
First Quarter
Dec 28
Full

Hourly Weather History & Observations

Time (CST) Temp. Windchill Dew Point Humidity Pressure Visibility Wind Dir Wind Speed Gust Speed Precip Events Conditions
12:15 AM 28.4 °F 23.3 °F 17.6 °F 64% 30.14 in 10.0 mi WSW 4.6 mph - N/A   Scattered Clouds
12:35 AM 26.6 °F 21.2 °F 17.6 °F 69% 30.14 in 10.0 mi WSW 4.6 mph - N/A   Scattered Clouds
12:55 AM 26.6 °F 21.2 °F 17.6 °F 69% 30.14 in 10.0 mi West 4.6 mph - N/A   Mostly Cloudy
1:15 AM 28.4 °F 24.6 °F 17.6 °F 64% 30.15 in 10.0 mi West 3.5 mph - N/A   Mostly Cloudy
1:35 AM 26.6 °F 21.2 °F 17.6 °F 69% 30.15 in 10.0 mi West 4.6 mph - N/A   Scattered Clouds
1:55 AM 26.6 °F 20.0 °F 17.6 °F 69% 30.16 in 10.0 mi WNW 5.8 mph - N/A   Clear
2:15 AM 26.6 °F 19.1 °F 17.6 °F 69% 30.18 in 10.0 mi WNW 6.9 mph - N/A   Clear
2:35 AM 26.6 °F 19.1 °F 19.4 °F 74% 30.19 in 10.0 mi NW 6.9 mph - N/A   Clear
3:15 AM 23.0 °F 17.0 °F 19.4 °F 86% 30.19 in 10.0 mi WNW 4.6 mph - N/A   Clear
3:35 AM 24.8 °F 19.1 °F 19.4 °F 80% 30.20 in 10.0 mi West 4.6 mph - N/A   Clear
3:55 AM 23.0 °F 15.8 °F 19.4 °F 86% 30.20 in 10.0 mi West 5.8 mph - N/A   Clear
4:15 AM 23.0 °F 17.0 °F 19.4 °F 86% 30.20 in 10.0 mi West 4.6 mph - N/A   Clear
4:35 AM 23.0 °F 18.4 °F 19.4 °F 86% 30.20 in 10.0 mi WSW 3.5 mph - N/A   Clear
4:55 AM 23.0 °F 15.8 °F 19.4 °F 86% 30.22 in 10.0 mi West 5.8 mph - N/A   Clear
5:15 AM 21.2 °F 13.6 °F 19.4 °F 93% 30.22 in 10.0 mi West 5.8 mph - N/A   Clear
5:35 AM 23.0 °F 18.4 °F 19.4 °F 86% 30.23 in 10.0 mi West 3.5 mph - N/A   Clear
5:55 AM 23.0 °F 15.8 °F 19.4 °F 86% 30.23 in 10.0 mi West 5.8 mph - N/A   Mostly Cloudy
6:15 AM 21.2 °F 14.9 °F 17.6 °F 86% 30.25 in 10.0 mi West 4.6 mph - N/A   Mostly Cloudy
6:35 AM 21.2 °F 13.6 °F 19.4 °F 93% 30.26 in 10.0 mi West 5.8 mph - N/A   Scattered Clouds
6:55 AM 21.2 °F 14.9 °F 19.4 °F 93% 30.26 in 10.0 mi West 4.6 mph - N/A   Scattered Clouds
7:15 AM 21.2 °F 13.6 °F 17.6 °F 86% 30.27 in 10.0 mi West 5.8 mph - N/A   Clear
7:35 AM 21.2 °F 13.6 °F 19.4 °F 93% 30.27 in 10.0 mi West 5.8 mph - N/A   Clear
7:55 AM 23.0 °F 15.8 °F 19.4 °F 86% 30.27 in 10.0 mi West 5.8 mph - N/A   Clear
8:15 AM 23.0 °F 15.8 °F 19.4 °F 86% 30.28 in 10.0 mi West 5.8 mph - N/A   Clear
8:35 AM 24.8 °F 16.9 °F 19.4 °F 80% 30.29 in 10.0 mi West 6.9 mph - N/A   Clear
9:15 AM 28.4 °F 21.2 °F 19.4 °F 69% 30.29 in 10.0 mi West 6.9 mph - N/A   Clear
9:35 AM 28.4 °F 20.4 °F 19.4 °F 69% 30.30 in 10.0 mi WNW 8.1 mph - N/A   Clear
9:55 AM 28.4 °F 19.7 °F 17.6 °F 64% 30.30 in 10.0 mi West 9.2 mph - N/A   Clear
10:15 AM 30.2 °F 21.9 °F 17.6 °F 60% 30.30 in 10.0 mi West 9.2 mph 16.1 mph N/A   Clear
10:35 AM 30.2 °F 21.3 °F 17.6 °F 60% 30.30 in 10.0 mi WNW 10.4 mph - N/A   Clear
10:55 AM 30.2 °F 20.2 °F 17.6 °F 60% 30.30 in 10.0 mi West 12.7 mph 18.4 mph N/A   Scattered Clouds
11:15 AM 30.2 °F 20.2 °F 17.6 °F 60% 30.29 in 10.0 mi WNW 12.7 mph 17.3 mph N/A   Scattered Clouds
11:35 AM 32.0 °F 22.5 °F 17.6 °F 55% 30.29 in 10.0 mi West 12.7 mph - N/A   Scattered Clouds
11:55 AM 32.0 °F 24.2 °F 17.6 °F 55% 30.28 in 10.0 mi West 9.2 mph - N/A   Clear
12:15 PM 32.0 °F 22.5 °F 17.6 °F 55% 30.27 in 10.0 mi WNW 12.7 mph - N/A   Clear
12:35 PM 32.0 °F 23.0 °F 17.6 °F 55% 30.27 in 10.0 mi West 11.5 mph - N/A   Clear
12:55 PM 32.0 °F 22.5 °F 17.6 °F 55% 30.26 in 10.0 mi WSW 12.7 mph - N/A   Clear
1:15 PM 32.0 °F 24.2 °F 17.6 °F 55% 30.26 in 10.0 mi West 9.2 mph - N/A   Clear
1:35 PM 33.8 °F 26.4 °F 17.6 °F 52% 30.25 in 10.0 mi West 9.2 mph - N/A   Clear
1:55 PM 33.8 °F 25.3 °F 17.6 °F 52% 30.24 in 10.0 mi WSW 11.5 mph - N/A   Clear
2:15 PM 33.8 °F 26.4 °F 17.6 °F 52% 30.23 in 10.0 mi West 9.2 mph - N/A   Clear
2:35 PM 33.8 °F 25.8 °F 17.6 °F 52% 30.23 in 10.0 mi WSW 10.4 mph - N/A   Clear
2:55 PM 33.8 °F 24.8 °F 17.6 °F 52% 30.23 in 10.0 mi WSW 12.7 mph - N/A   Clear
3:15 PM 33.8 °F 26.4 °F 17.6 °F 52% 30.22 in 10.0 mi WSW 9.2 mph - N/A   Clear
3:35 PM 32.0 °F 26.4 °F 19.4 °F 60% 30.22 in 10.0 mi WSW 5.8 mph - N/A   Clear
3:55 PM 32.0 °F 27.5 °F 19.4 °F 60% 30.22 in 10.0 mi WSW 4.6 mph - N/A   Clear
4:15 PM 32.0 °F 28.7 °F 19.4 °F 60% 30.21 in 10.0 mi WSW 3.5 mph - N/A   Clear
4:35 PM 32.0 °F 28.7 °F 19.4 °F 60% 30.22 in 10.0 mi WSW 3.5 mph - N/A   Clear
4:55 PM 32.0 °F - 19.4 °F 60% 30.22 in 10.0 mi Calm Calm - N/A   Clear
5:15 PM 30.2 °F 26.7 °F 19.4 °F 64% 30.22 in 10.0 mi SW 3.5 mph - N/A   Clear
5:35 PM 30.2 °F 26.7 °F 19.4 °F 64% 30.22 in 10.0 mi SSW 3.5 mph - N/A   Clear
5:55 PM 28.4 °F 23.3 °F 19.4 °F 69% 30.21 in 10.0 mi SSW 4.6 mph - N/A   Clear
6:15 PM 30.2 °F 25.4 °F 19.4 °F 64% 30.22 in 10.0 mi SW 4.6 mph - N/A   Clear
6:35 PM 30.2 °F - 19.4 °F 64% 30.21 in 10.0 mi Calm Calm - N/A   Clear
7:15 PM 28.4 °F 24.6 °F 19.4 °F 69% 30.21 in 10.0 mi SSW 3.5 mph - N/A   Clear
7:35 PM 26.6 °F 21.2 °F 19.4 °F 74% 30.20 in 10.0 mi SSW 4.6 mph - N/A   Clear
7:55 PM 28.4 °F 23.3 °F 21.2 °F 74% 30.20 in 10.0 mi SSW 4.6 mph - N/A   Clear
8:15 PM 28.4 °F 24.6 °F 21.2 °F 74% 30.19 in 10.0 mi SSW 3.5 mph - N/A   Clear
8:35 PM 26.6 °F 22.6 °F 21.2 °F 80% 30.19 in 10.0 mi SW 3.5 mph - N/A   Scattered Clouds
8:55 PM 26.6 °F 21.2 °F 21.2 °F 80% 30.18 in 10.0 mi SW 4.6 mph - N/A   Overcast
9:15 PM 28.4 °F 23.3 °F 21.2 °F 74% 30.18 in 10.0 mi SW 4.6 mph - N/A   Overcast
9:35 PM 30.2 °F 23.4 °F 23.0 °F 75% 30.18 in 10.0 mi SW 6.9 mph - N/A   Mostly Cloudy
9:55 PM 30.2 °F 24.3 °F 23.0 °F 75% 30.18 in 10.0 mi WSW 5.8 mph - N/A   Scattered Clouds
10:15 PM 30.2 °F 25.4 °F 23.0 °F 75% 30.16 in 10.0 mi SW 4.6 mph - N/A   Scattered Clouds
10:35 PM 30.2 °F 25.4 °F 23.0 °F 75% 30.17 in 10.0 mi WSW 4.6 mph - N/A   Overcast
11:15 PM 30.2 °F 26.7 °F 23.0 °F 75% 30.16 in 10.0 mi SW 3.5 mph - N/A   Overcast
11:35 PM 30.2 °F 26.7 °F 23.0 °F 75% 30.16 in 10.0 mi WSW 3.5 mph - N/A   Overcast
11:55 PM 30.2 °F 26.7 °F 23.0 °F 75% 30.16 in 10.0 mi SW 3.5 mph - N/A   Overcast